[keps] orb12332.2l.amsat
Ray Hoad
ray.hoad at mypbmail.com
Tue Nov 27 18:49:44 PST 2012
SB KEPS @ AMSAT $ORB12332.N
2Line Orbital Elements 12332.AMSAT
HR AMSAT ORBITAL ELEMENTS FOR AMATEUR SATELLITES IN NASA FORMAT
FROM WA5QGD FORT WORTH,TX November 27, 2012
BID: ORB12332.N
DECODE 2-LINE ELSETS WITH THE FOLLOWING KEY:
1 AAAAAU 00 0 0 BBBBB.BBBBBBBB .CCCCCCCC 00000-0 00000-0 0 DDDZ
2 AAAAA EEE.EEEE FFF.FFFF GGGGGGG HHH.HHHH III.IIII JJ.JJJJJJJJKKKKKZ
KEY: A-CATALOGNUM B-EPOCHTIME C-DECAY D-ELSETNUM E-INCLINATION F-RAAN
G-ECCENTRICITY H-ARGPERIGEE I-MNANOM J-MNMOTION K-ORBITNUM Z-CHECKSUM
TO ALL RADIO AMATEURS BT
AO-07
1 07530U 74089B 12332.42723162 -.00000027 00000-0 10000-3 0 5418
2 07530 101.4144 323.4033 0011816 323.5936 036.4337 12.53593046740508
FO-29
1 24278U 96046B 12332.39199657 .00000028 00000-0 66707-4 0 9853
2 24278 098.5847 051.6924 0350373 327.0073 030.9630 13.52992849804023
SO-33
1 25509U 98061B 12331.78401742 .00000817 00000-0 14825-3 0 3755
2 25509 031.4296 133.4595 0352070 186.2589 173.3556 14.28917930735924
RS-22
1 27939U 03042A 12332.40118970 .00000830 00000-0 16573-3 0 9424
2 27939 097.7985 164.7777 0014268 105.4579 254.8202 14.64241726489762
VO-52
1 28650U 05017B 12332.25218861 .00002210 00000-0 27403-3 0 2737
2 28650 097.5835 355.1397 0025209 223.4457 136.4741 14.83412527409149
HO-68
1 36122U 09072B 12332.32713935 -.00000044 00000-0 00000 0 0 478
2 36122 100.3401 028.2241 0007912 096.2104 263.9906 13.16300277141859
UO-11
1 14781U 84021B 12331.52374453 .00000656 00000-0 92115-4 0 337
2 14781 097.9328 029.4523 0008316 218.7158 141.3458 14.80675253543948
AO-16
1 20439U 90005D 12331.88101791 .00000254 00000-0 11009-3 0 6146
2 20439 098.4473 270.8371 0011760 040.1848 320.0195 14.32116163193284
LO-19
1 20442U 90005G 12331.87951302 .00000218 00000-0 96316-4 0 5458
2 20442 098.4161 273.2860 0012529 032.0694 328.1245 14.32330865193478
AO-27
1 22825U 93061C 12332.54466449 .00000102 00000-0 56920-4 0 2522
2 22825 098.5932 272.9566 0008511 154.4840 205.6764 14.29513634999819
IO-26
1 22826U 93061D 12331.95420406 .00000235 00000-0 10851-3 0 66
2 22826 098.5866 272.7038 0009124 150.4032 209.7666 14.29792866999865
GO-32
1 25397U 98043D 12332.00095619 -.00000006 00000-0 15414-4 0 9324
2 25397 098.3846 302.8756 0001742 136.7669 223.3660 14.23309153747189
NO-44
1 26931U 01043C 12332.16273313 .00000174 00000-0 99697-4 0 1950
2 26931 067.0525 060.2795 0004948 257.2828 102.7720 14.29864723582545
SO-50
1 27607U 02058C 12331.62252392 .00000891 00000-0 15562-3 0 9246
2 27607 064.5555 160.6918 0070755 215.2482 144.3898 14.72654592533882
CO-55
1 27844U 03031E 12332.05993947 .00000383 00000-0 19630-3 0 5171
2 27844 098.7029 338.0790 0010324 109.6420 250.5872 14.21121936488025
CO-57
1 27848U 03031J 12331.03639167 .00000332 00000-0 17374-3 0 4652
2 27848 098.7106 336.4794 0010318 118.0010 242.2207 14.20860027487819
AO-51
1 28375U 04025K 12331.49396573 .00000326 00000-0 11041-3 0 4235
2 28375 098.1706 289.4222 0082763 270.0461 089.1261 14.41037342442144
CP3
1 31129U 07012N 12332.47433519 .00001288 00000-0 30043-3 0 3236
2 31129 097.8871 330.6877 0100369 335.8868 023.7602 14.53360807297692
CO-65
1 32785U 08021C 12332.17011833 .00001526 00000-0 19199-3 0 4790
2 32785 097.7807 029.2169 0013317 246.8221 113.1600 14.83423704247926
PRISM
1 33493U 09002B 12332.46541984 .00005036 00000-0 59650-3 0 2956
2 33493 098.1910 117.2512 0019300 126.3480 233.9480 14.84903160207978
SOHLA-1
1 33496U 09002E 12331.85080085 .00000727 00000-0 12923-3 0 8973
2 33496 098.1185 082.6569 0005570 242.6930 117.3705 14.70130252206140
SO-67
1 35870U 09049F 12332.49684069 .00006382 00000-0 25598-3 0 5506
2 35870 097.2160 002.4771 0001857 007.0569 129.8563 15.25328586177496
TISAT-1
1 36799U 10035E 12332.16685445 .00003105 00000-0 39176-3 0 5661
2 36799 098.0507 049.6399 0014849 008.9184 351.2259 14.82609477128636
STUDSAT
1 36801U 10035G 12332.32527964 .00009559 00000-0 10932-2 0 5302
2 36801 098.0596 051.3779 0012071 352.4982 007.6048 14.86173022128733
FO-69
1 37227U 0 12324.39082420 .00000949 00000-0 14124-3 0 03419
2 37227 071.9700 329.4329 0015671 026.5333 333.6607 14.77273675059013
FO-70
1 37380U 0 12324.35497821 .00000912 00000-0 13684-3 0 03454
2 37380 071.9737 330.2673 0016487 023.0914 337.0959 14.77019282058893
ALMASAT-1
1 38078U 12006B 12332.45928797 .00028922 00000-0 78116-3 0 7725
2 38078 069.4770 305.7762 0730372 043.2300 322.3777 14.15773148 40607
XATCOBEO
1 38082U 12006F 12332.31835293 .00075854 00000-0 17519-2 0 7289
2 38082 069.4813 297.8827 0668293 038.8511 325.8647 14.32072719 40800
NOAA-10
1 16969U 86073A 12332.53716724 .00000190 00000-0 94603-4 0 1494
2 16969 098.5668 358.5650 0013038 114.7262 245.5290 14.27598678363179
NOAA-11
1 19531U 88089A 12332.48949114 .00000338 00000-0 19670-3 0 1445
2 19531 098.7258 054.1509 0011921 115.5504 244.6909 14.14994483247609
NOAA-12
1 21263U 91032A 12332.51934410 .00000115 00000-0 67141-4 0 6231
2 21263 098.7168 353.3289 0014753 085.8548 274.4318 14.25533651119821
MET-3/5
1 21655U 91056A 12331.79618013 -.00000401 00000-0 -10737-2 0 5572
2 21655 082.5577 037.3014 0012173 274.8809 085.0924 13.17046633 23293
MET-2/21
1 22782U 93055A 12331.27832558 .00000068 00000-0 47977-4 0 5913
2 22782 082.5473 263.8946 0024074 060.0345 300.3203 13.83694636971585
OKEAN-4
1 23317U 94066A 12332.54858990 .00001226 00000-0 14350-3 0 662
2 23317 082.5409 238.4372 0021176 167.0705 193.1059 14.84136840979033
NOAA-14
1 23455U 94089A 12332.44764878 .00000045 00000-0 47103-4 0 1066
2 23455 098.8196 053.8224 0008803 208.2720 151.7975 14.13883647923864
NOAA-15
1 25338U 98030A 12332.36406573 .00000282 00000-0 13882-3 0 5012
2 25338 098.7054 317.8738 0010698 359.5325 000.5855 14.25152629756096
RESURS
1 25394U 98043A 12332.17152263 .00000112 00000-0 66154-4 0 2426
2 25394 098.3366 311.9708 0002177 102.8493 257.2931 14.24311096747607
FENGYUN1
1 25730U 99025A 12332.45657761 .00001924 00000-0 11157-2 0 7489
2 25730 098.8572 288.7319 0020504 258.1782 101.7087 14.09887672697615
OKEAN-0
1 25860U 99039A 12332.08069680 .00000977 00000-0 15476-3 0 7985
2 25860 097.9594 291.6157 0001967 071.9732 288.1689 14.74409493718574
NOAA-16
1 26536U 00055A 12332.21049584 .00000027 00000-0 39362-4 0 9835
2 26536 099.0742 016.6839 0010374 349.2504 010.8461 14.12810573628053
NOAA-17
1 27453U 02032A 12332.26337432 .00000094 00000-0 58276-4 0 9242
2 27453 098.3246 350.9639 0012357 042.2408 317.9725 14.24514142541976
NOAA-18
1 28654U 05018A 12332.29302126 .00000328 00000-0 20510-3 0 4073
2 28654 099.0694 291.9267 0015000 057.7868 302.4758 14.11739151387579
NOAA-19
1 33591U 09005A 12332.26665848 .00000117 00000-0 89243-4 0 5929
2 33591 098.8803 270.1545 0013308 281.8294 078.1396 14.11424178196016
HUBBLE
1 20580U 90037B 12331.56925383 .00002133 00000-0 14209-3 0 1186
2 20580 028.4690 160.5058 0002835 347.7087 012.3425 15.03083745 39178
ISS
1 25544U 98067A 12332.58096921 .00015694 00000-0 26377-3 0 7251
2 25544 051.6494 029.8489 0015758 335.7188 174.8451 15.51815547803397
CO-58
1 28895U 05043F 12332.11165358 .00000957 00000-0 20430-3 0 3374
2 28895 097.8899 191.0251 0017916 002.1956 357.9298 14.60870116377442
FALCON
1 30776U 07006E 12331.51069655 .00006804 00000-0 42388-3 0 4927
2 30776 035.4336 004.4379 0002041 310.3225 049.7315 15.08988279314777
MAST
1 31126U 07012K 12332.01500594 .00000958 00000-0 22335-3 0 6164
2 31126 097.8744 333.6101 0093164 323.8296 035.6624 14.54363153297938
CAPE1
1 31130U 07012P 12332.39092986 .00001370 00000-0 31957-3 0 6283
2 31130 097.8867 330.2845 0100770 336.8730 022.7969 14.53209095297477
COMPASS
1 32787U 08021E 12332.07205322 .00003564 00000-0 42617-3 0 4749
2 32787 097.7825 029.6886 0014030 246.3927 113.5837 14.84725241247972
AAUSAT2
1 32788U 08021F 12332.13820776 .00003917 00000-0 46340-3 0 4652
2 32788 097.7813 030.2334 0013452 241.9519 118.0344 14.85112412248011
DO-64
1 32789U 08021G 12332.13275139 .00005837 00000-0 65468-3 0 4857
2 32789 097.7950 032.9344 0013311 241.1864 118.8008 14.87116084248086
CO-66
1 32791U 08021J 12331.52504843 .00002668 00000-0 32624-3 0 4621
2 32791 097.7799 028.7515 0014290 246.7085 113.2660 14.84005481247814
RS-30
1 32953U 08025A 12332.11702827 .00000010 00000-0 00000 0 0 3608
2 32953 082.5018 193.8259 0018727 316.1669 043.7927 12.43029955204808
PHARMSAT
1 35002U 09028B 12226.86484473 .07728342 73476-5 57159-3 0 789
2 35002 040.4341 050.6671 0012079 300.9773 059.0492 16.39309245183554
METEOR-M
1 35865U 09049A 12332.26631284 -.00000012 00000-0 14191-4 0 9996
2 35865 098.6337 023.3506 0002088 320.9312 039.1714 14.21875386165778
RS-38
1 35869U 09049E 12332.19220499 .00000076 00000-0 53913-4 0 9707
2 35869 098.6285 023.2437 0004197 310.3430 049.7381 14.22101872165784
JUGNU
1 37839U 11058B 12331.55787686 .00000620 00000-0 19019-3 0 2777
2 37839 019.9558 094.5336 0018662 211.3177 148.6111 14.12107556 58225
SRMSAT
1 37841U 11058D 12331.55070007 .00000264 00000-0 00000 0 0 2794
2 37841 019.9687 102.6471 0011985 174.8046 185.2537 14.10183407 58137
RAX-2
1 37853U 11061D 12332.37412741 .00008552 00000-0 66165-3 0 3536
2 37853 101.7043 086.9684 0242320 245.0231 112.5611 14.81563153 58541
AUBIESAT
1 37854U 11061E 12331.33517104 .00009032 00000-0 68643-3 0 3516
2 37854 101.7051 085.9389 0242943 247.0116 110.5293 14.82052547 58395
HRBE
1 37855U 11061F 12332.24611595 .00008696 00000-0 66311-3 0 3488
2 37855 101.7063 087.1571 0243700 244.6068 112.9723 14.81849651 58525
RS-39
1 38051U 11062C 12332.47394344 .00013529 00000-0 50476-3 0 9272
2 38051 051.6363 100.0510 0011973 259.0486 145.4829 15.27634307 46905
E-STAR
1 38079U 12006C 12332.31326480 .00060952 00000-0 14366-2 0 6692
2 38079 069.4774 299.6259 0686895 039.9118 325.0422 14.27735000 40754
GOLIAT
1 38085U 12006J 12332.29288664 .00059021 00000-0 13818-2 0 6457
2 38085 069.4838 300.5947 0693892 040.4841 324.5678 14.26390261 40722
HORYU-2
1 38340U 12025D 12332.44311818 .00001868 00000-0 31651-3 0 2578
2 38340 098.1928 272.7069 0012766 167.7563 192.3908 14.70438698 28469
RS-40
1 38736U 12041D 12332.42553316 .00000010 00000-0 00000 0 0 1166
2 38736 082.4767 280.9236 0020119 050.2320 310.0535 12.42647991 15185
PROITERES
1 38756U 12047B 12332.44787642 .00001040 00000-0 16625-3 0 2661
2 38756 098.2767 039.5988 0013411 033.4018 326.8028 14.73995295 11679
AENEAS
1 38760U 0 12328.86854836 .00006322 00000-0 57472-3 0 00732
2 38760 064.6720 183.1573 0217864 269.5045 088.1078 14.79695270010483
CSSWE-D
1 38761U 0 12328.86725272 .00003876 00000-0 35886-3 0 00729
2 38761 064.6725 183.1541 0219021 269.8463 087.7546 14.79562629010484
CXBN-E
1 38762U 0 12328.86400051 .00004696 00000-0 43043-3 0 00696
2 38762 064.6739 183.1442 0218624 269.3484 088.2568 14.79673147010484
OBJECT F
1 38763U 0 12328.86475519 .00003710 00000-0 34376-3 0 00682
2 38763 064.6719 183.1378 0219183 269.7344 087.8645 14.79598814010322
CINEMA-G
1 38764U 0 12328.86384767 .00003915 00000-0 36183-3 0 00659
2 38764 064.6711 183.1300 0218874 269.7643 087.8353 14.79633893010488
CP5
1 38765U 0 12328.86065838 .00004806 00000-0 43995-3 0 00665
2 38765 064.6758 183.1131 0218123 269.1901 088.4035 14.79754588010489
RAIKO
1 38852U 98067CN 12332.54841703 .00041274 00000-0 59604-3 0 557
2 38852 051.6598 029.2002 0017199 329.7579 030.2383 15.55370058 8316
FITSAT 1
1 38853U 98067CP 12332.21473223 .00051019 00000-0 71513-3 0 551
2 38853 051.6587 030.7227 0015098 343.1282 016.9151 15.56123409 8319
TechEdSat
1 38854U 98067CQ 12332.44540524 .00074272 00000-0 97201-3 0 587
2 38854 051.6474 029.2575 0015367 347.4661 012.5460 15.57799903 8359
F 1
1 38855U 98067CR 12332.38474622 .00071099 00000-0 93643-3 0 621
2 38855 051.6501 029.5966 0017291 349.1798 010.8814 15.57610976 8239
WeWish
1 38856U 98067CS 12332.52956975 .00114695 00000-0 13186-2 0 661
2 38856 051.6480 028.3173 0019249 341.1869 018.8393 15.60930885 8260
/EX
More information about the Keps
mailing list